Satellite-Ground Cal/Val Region Overpasses Predictions

Prediction of Satellite NPP Overpassing Cal/Val Region: PacNW

Region Location: (Latitude: 10.00, Longitude: 139.50) to (Latitude: 22.70, Longitude: 165.60).

Table of predicted overpasses for the next 14.0 days since TLE Epoch: 11/5/2017
Interval Starting Time Starting Location Ending Time Ending Location
1 11/05/2017 15:18:06 ( 22.67, 155.44) 11/05/2017 15:21:41 ( 10.05, 152.44)
2 11/06/2017 02:27:11 ( 10.00, 162.97) 11/06/2017 02:30:47 ( 22.68, 159.96)
3 11/06/2017 14:59:05 ( 22.64, 160.18) 11/06/2017 15:02:40 ( 10.02, 157.19)
4 11/07/2017 02:10:44 ( 19.14, 165.59) 11/07/2017 02:11:44 ( 22.66, 164.72)
5 11/07/2017 03:49:39 ( 10.04, 142.35) 11/07/2017 03:53:03 ( 22.02, 139.51)
6 11/07/2017 14:40:02 ( 22.67, 164.95) 11/07/2017 14:43:37 ( 10.05, 161.95)
7 11/07/2017 16:21:32 ( 22.66, 139.57) 11/07/2017 16:21:36 ( 22.43, 139.51)
8 11/08/2017 03:30:37 ( 10.02, 147.11) 11/08/2017 03:34:13 ( 22.70, 144.10)
9 11/08/2017 16:02:30 ( 22.69, 144.33) 11/08/2017 16:06:06 ( 10.01, 141.32)
10 11/09/2017 03:11:36 ( 10.05, 151.86) 11/09/2017 03:15:11 ( 22.67, 148.86)
11 11/09/2017 15:43:28 ( 22.65, 149.08) 11/09/2017 15:47:03 ( 10.03, 146.08)
12 11/10/2017 02:52:33 ( 10.02, 156.62) 11/10/2017 02:56:08 ( 22.65, 153.62)
13 11/10/2017 15:24:26 ( 22.68, 153.85) 11/10/2017 15:28:01 ( 10.06, 150.85)
14 11/11/2017 02:33:32 ( 10.06, 161.37) 11/11/2017 02:37:07 ( 22.68, 158.37)
15 11/11/2017 15:05:24 ( 22.65, 158.59) 11/11/2017 15:08:59 ( 10.02, 155.60)
16 11/12/2017 02:15:09 ( 12.38, 165.59) 11/12/2017 02:18:04 ( 22.66, 163.13)
17 11/12/2017 03:55:59 ( 10.04, 140.76) 11/12/2017 03:57:31 ( 15.45, 139.50)
18 11/12/2017 14:46:22 ( 22.67, 163.36) 11/12/2017 14:49:57 ( 10.05, 160.36)
19 11/13/2017 03:36:57 ( 10.02, 145.52) 11/13/2017 03:40:33 ( 22.70, 142.50)
20 11/13/2017 14:30:19 ( 12.13, 165.59) 11/13/2017 14:30:55 ( 10.01, 165.11)
21 11/13/2017 16:08:49 ( 22.69, 142.74) 11/13/2017 16:12:25 ( 10.01, 139.73)
22 11/14/2017 03:17:55 ( 10.05, 150.27) 11/14/2017 03:21:30 ( 22.67, 147.27)
23 11/14/2017 15:49:48 ( 22.65, 147.49) 11/14/2017 15:53:23 ( 10.03, 144.49)
24 11/15/2017 02:58:53 ( 10.03, 155.03) 11/15/2017 03:02:28 ( 22.65, 152.03)
25 11/15/2017 15:30:45 ( 22.68, 152.25) 11/15/2017 15:34:20 ( 10.06, 149.26)
26 11/16/2017 02:39:50 ( 10.01, 159.79) 11/16/2017 02:43:26 ( 22.69, 156.78)
27 11/16/2017 15:11:43 ( 22.70, 157.02) 11/16/2017 15:15:19 ( 10.02, 154.00)
28 11/17/2017 02:20:49 ( 10.04, 164.54) 11/17/2017 02:24:24 ( 22.67, 161.54)
29 11/17/2017 14:52:42 ( 22.66, 161.76) 11/17/2017 14:56:17 ( 10.04, 158.77)
30 11/18/2017 03:43:16 ( 10.03, 143.92) 11/18/2017 03:46:51 ( 22.65, 140.93)
31 11/18/2017 14:34:44 ( 18.87, 165.59) 11/18/2017 14:37:15 ( 10.01, 163.51)
32 11/18/2017 16:15:09 ( 22.68, 141.15) 11/18/2017 16:17:04 ( 15.93, 139.51)


NCC Satellite Cal/Val Overpasses Prediction Service
